Wind_Speed
47 45 44 43 42 40 40 41 41 42 42 42 41 40 39 39 39 39 40 40 41 41 42 43 44 44 44 45 46 48 49 51 53 54 55 56 57 58 60 61 63 64 65 65 66 65 64 63 63 64 66 68 69 71 72 73 74 75 76 76 76 76 76 74 73 73 73 73 72 71 70 73 75 74 74 72 73 76 77 77 77 77 79 80 81 81 82 82
47 46 44 42 41 40 40 41 42 42 43 43 42 41 40 40 40 40 40 41 41 42 44 45 45 46 46 47 48 50 52 53 55 56 57 58 59 61 62 64 65 66 66 66 65 64 64 64 66 67 69 70 72 73 75 76 76 76 75 73 72 70 69 67 65 65 65 64 64 63 63 66 67 67 68 66 66 69 70 70 71 70 71 72 73 73 74 74
47 45 44 42 41 41 41 42 42 43 43 43 42 42 41 41 40 41 41 41 42 44 45 46 46 47 48 49 50 52 53 54 55 57 59 60 62 63 64 65 66 66 65 65 64 65 66 68 69 71 72 73 74 74 74 74 72 70 68 65 63 61 59 59 58 58 59 59 59 58 58 61 63 63 64 63 62 64 66 66 67 67 67 68 69 70 70 71
46 45 43 42 41 41 41 42 43 44 44 43 42 42 41 41 41 41 42 43 44 45 46 47 48 49 50 51 53 54 55 55 57 59 60 62 63 65 66 66 65 64 64 65 66 68 69 71 72 73 73 72 71 69 67 65 62 61 59 57 56 55 53 54 55 55 56 57 57 57 57 58 62 63 64 64 63 64 66 66 67 68 68 69 70 70 71 72
46 44 43 43 42 41 41 43 44 44 44 43 43 42 42 42 43 43 43 44 46 46 47 48 49 50 52 53 55 55 56 57 59 60 61 63 65 65 65 64 63 64 65 67 69 70 72 73 72 71 68 65 62 59 57 56 54 54 54 53 53 53 52 53 55 56 57 58 59 60 61 61 63 66 68 69 68 69 70 71 72 72 73 73 74 74 75 76
46 45 44 43 42 42 42 43 44 43 43 43 43 43 44 44 44 43 43 44 45 45 47 48 50 51 53 54 55 56 57 59 60 62 63 64 64 63 63 63 64 66 68 70 71 72 71 69 65 62 58 56 54 52 52 52 52 52 53 54 54 55 55 56 58 59 61 62 63 65 66 66 67 69 72 73 74 74 75 75 76 77 78 79 79 79 80 80
45 44 44 43 43 42 42 43 43 42 42 42 42 43 44 44 43 43 43 43 43 44 46 48 50 52 53 54 56 57 59 60 62 63 63 62 62 62 63 65 67 68 70 70 69 66 62 58 55 53 51 51 51 51 51 53 54 55 56 57 58 59 60 61 62 63 65 66 68 69 70 71 72 74 76 77 78 79 80 80 81 82 83 83 84 85 85 85
44 43 43 42 42 41 40 41 41 41 41 41 41 41 42 42 42 43 43 43 44 45 47 48 50 51 53 55 57 59 61 62 62 62 61 61 62 63 65 67 69 68 67 63 59 56 53 51 50 50 50 51 52 53 54 56 57 59 60 61 63 64 65 66 67 68 69 70 71 72 74 75 77 78 80 81 82 83 84 84 85 86 87 87 88 89 90 90
43 42 41 40 40 39 39 39 39 39 39 39 39 39 40 41 42 43 43 44 45 46 47 48 50 52 54 56 59 60 61 61 60 60 61 62 64 66 67 67 65 61 57 53 51 49 49 50 51 52 53 55 56 57 59 60 62 63 64 66 67 68 69 70 71 72 73 74 75 76 77 78 81 82 83 84 85 86 87 88 89 89 90 91 92 93 94 94
41 40 39 39 38 38 38 38 38 37 37 38 38 38 39 40 41 42 43 44 45 46 48 50 52 54 56 58 59 59 59 59 60 61 63 65 66 65 63 59 55 52 49 49 49 50 51 53 54 56 57 59 60 62 63 64 66 67 68 69 70 71 72 73 74 75 76 77 77 78 78 80 82 84 84 85 87 87 88 89 90 91 92 92 93 94 95 97
39 39 38 38 37 37 37 37 37 37 36 37 37 38 39 40 42 42 43 44 46 47 49 51 54 56 57 58 58 57 58 59 61 63 64 64 61 58 54 50 48 48 48 49 51 53 55 56 58 59 60 62 63 65 66 67 68 69 70 71 72 73 73 74 74 74 76 77 77 77 77 77 81 83 83 83 85 85 86 88 89 90 91 92 93 94 95 96
38 37 37 37 36 36 36 36 36 35 35 36 37 38 39 40 41 42 43 45 47 49 51 53 55 56 56 56 56 57 59 61 62 62 60 56 52 49 47 47 48 49 51 53 55 57 58 60 61 62 63 65 66 67 68 68 69 70 70 71 71 71 71 73 73 72 73 74 74 74 74 74 77 81 81 81 82 83 84 85 87 88 89 91 92 92 94 95
36 35 35 35 35 34 34 34 34 34 35 36 37 38 39 40 41 43 44 46 48 51 53 54 54 54 54 55 57 59 60 60 58 54 50 47 46 46 47 48 50 52 54 56 57 59 60 62 63 64 65 66 67 68 68 68 68 68 68 68 68 68 67 68 70 70 69 71 71 71 71 70 73 77 78 78 79 80 81 82 84 85 87 88 90 91 91 93
34 34 33 33 33 33 33 33 34 34 35 36 37 38 39 41 42 44 46 48 50 51 52 52 52 53 54 57 58 58 56 52 48 45 44 45 46 47 49 51 53 55 56 58 59 61 62 63 64 64 65 65 65 65 64 64 64 64 63 63 64 64 64 63 65 67 67 67 68 68 67 67 68 72 73 74 75 76 77 78 80 81 82 83 84 86 86 88
32 32 32 32 32 32 32 33 34 35 35 36 37 39 40 42 44 45 47 48 49 50 50 51 52 54 56 56 53 50 46 44 43 43 44 46 48 50 52 53 55 56 58 59 60 61 61 61 61 61 60 60 60 60 60 59 59 60 60 61 61 62 63 62 63 65 66 67 68 66 66 66 67 70 72 73 74 75 76 78 79 80 81 82 82 83 83 84
30 30 30 30 30 31 32 33 34 35 36 37 38 40 41 43 44 46 47 47 48 48 50 52 53 53 51 47 44 41 41 41 43 44 46 48 50 52 53 55 56 57 58 58 58 58 58 57 57 56 56 56 57 57 57 57 57 58 58 59 60 61 63 63 64 65 67 68 70 69 67 67 68 71 74 75 76 77 79 80 81 82 83 84 84 84 84 85
27 27 28 28 30 31 32 33 34 35 37 38 39 40 42 43 44 44 45 46 47 49 51 51 48 45 41 39 38 39 41 43 44 46 48 50 51 53 54 55 56 56 55 55 55 54 54 53 53 53 54 55 55 56 56 56 57 58 59 59 61 62 64 65 65 66 67 68 70 71 70 69 69 72 75 77 79 81 82 83 83 84 85 86 87 87 88 88
26 26 27 29 30 31 32 33 34 35 37 38 39 40 41 41 42 43 45 47 48 47 45 41 38 36 36 38 39 41 43 44 46 47 49 50 51 52 52 53 52 52 51 51 51 51 51 51 51 51 52 53 54 55 56 57 57 58 59 60 60 62 64 65 65 66 67 68 70 72 72 72 71 72 77 79 81 83 85 86 86 87 87 88 89 90 91 92
26 27 27 28 29 30 32 33 34 35 36 37 38 38 39 40 42 44 45 44 41 38 35 34 34 36 37 39 41 43 44 45 46 48 49 49 49 49 49 49 49 48 47 47 48 49 49 49 49 50 51 52 53 54 55 56 57 57 58 59 59 59 61 64 65 65 66 66 70 72 72 74 75 73 77 82 84 87 88 88 90 91 91 91 92 93 94 95
26 26 27 28 29 29 30 31 32 33 34 35 36 37 39 41 42 40 37 34 32 31 32 34 36 37 39 40 42 43 44 45 46 47 47 47 46 46 45 45 45 45 45 46 47 47 48 49 49 50 51 52 52 53 54 55 56 56 57 57 58 58 59 63 64 64 66 66 69 73 72 75 79 76 78 84 87 90 91 91 93 94 93 93 94 94 95 96
25 25 26 26 26 27 28 29 30 31 33 34 36 37 38 36 33 30 28 28 29 31 33 35 37 39 39 40 41 42 44 44 44 44 43 43 42 41 41 42 43 44 45 45 46 47 47 48 49 50 50 51 51 52 53 54 55 56 57 58 59 59 59 63 65 64 67 67 68 72 72 74 80 79 78 84 88 90 91 92 94 94 93 93 94 94 95 96
22 22 23 23 24 26 27 28 29 31 33 34 33 31 29 26 25 25 27 29 31 33 34 36 37 38 39 39 40 41 41 41 40 38 38 38 38 39 41 42 43 43 44 44 44 45 47 47 48 49 50 51 51 52 53 54 55 56 58 59 60 61 60 61 65 67 70 70 69 70 69 71 78 80 79 82 87 90 90 92 93 92 91 92 92 93 94 95
19 20 21 22 23 25 26 28 30 30 29 26 24 22 22 22 24 26 28 30 32 34 35 35 36 37 38 38 38 38 37 36 36 36 36 38 39 40 41 41 42 43 44 45 46 46 47 48 49 50 51 51 52 53 55 56 57 57 59 60 60 63 63 61 62 66 71 74 74 71 68 69 76 80 82 83 87 90 91 93 94 91 90 91 92 94 94 95
17 19 20 22 23 25 25 25 23 21 19 18 18 20 21 23 25 27 29 31 32 33 33 34 35 35 35 35 34 34 34 34 35 36 37 38 39 40 41 43 44 46 47 49 50 51 51 51 51 51 52 53 54 55 56 58 60 60 61 62 62 64 66 66 64 64 68 74 78 77 72 70 74 80 83 85 88 91 92 93 92 90 90 90 91 92 93 93
17 18 19 20 20 19 18 16 15 15 15 17 19 20 22 24 26 28 29 30 31 31 32 32 32 32 32 31 31 32 33 34 35 36 38 39 41 43 44 46 47 48 49 50 52 52 52 52 52 53 53 54 56 57 58 60 62 63 64 65 67 67 68 70 69 68 70 73 79 80 76 71 72 80 86 87 88 91 92 91 89 87 87 88 88 90 91 91
15 15 14 14 13 12 11 12 13 14 16 18 20 21 23 25 26 27 27 28 29 29 29 29 29 29 29 29 30 32 33 35 36 37 39 41 43 45 46 48 49 49 50 51 52 53 54 55 55 56 56 57 59 60 61 62 64 65 66 68 70 71 71 72 72 73 73 75 80 83 81 74 70 77 88 90 89 91 90 88 87 86 86 86 87 87 89 90
10 9 9 9 9 9 10 11 13 15 17 19 20 21 23 24 25 25 26 25 26 26 26 26 26 27 28 30 31 33 34 36 38 40 41 43 44 46 48 49 51 52 53 54 56 57 58 59 60 61 62 62 63 65 65 66 67 68 69 70 71 72 73 73 74 75 76 78 82 85 87 82 72 76 89 92 92 91 88 86 86 86 86 85 86 86 86 87
7 6 6 6 7 8 10 12 14 16 17 18 19 21 22 22 23 23 22 22 22 23 24 25 26 28 30 31 33 35 37 38 41 43 45 46 48 49 51 53 56 57 59 60 61 62 63 64 65 66 67 68 68 69 70 70 70 71 71 72 73 74 74 75 75 76 77 79 82 84 88 88 79 79 90 93 93 91 88 87 86 85 85 85 85 84 84 85
3 2 4 6 8 10 11 13 14 15 16 17 18 19 20 20 19 19 20 21 21 21 23 25 27 30 32 33 35 37 39 42 44 46 48 51 52 54 56 58 60 62 63 65 65 66 67 67 67 68 69 69 70 71 71 72 72 72 72 71 72 74 74 75 75 74 74 77 82 83 85 88 85 83 88 90 90 91 92 91 87 84 84 83 82 81 81 83
1 3 5 7 8 10 11 12 14 15 15 16 16 17 17 16 17 18 20 20 21 22 25 27 29 31 33 35 38 41 44 47 49 51 53 55 57 58 60 61 63 65 66 67 68 68 68 69 69 70 70 70 71 72 72 73 73 72 72 70 69 71 73 74 74 74 73 74 80 83 83 87 90 89 90 88 86 89 91 91 87 85 84 83 82 82 82 82
3 4 6 7 8 9 11 12 13 13 13 13 14 14 15 16 18 20 20 21 23 26 28 30 32 34 36 40 44 47 50 53 55 56 58 59 60 62 63 64 65 66 67 68 69 70 70 71 71 71 72 72 71 72 73 73 74 74 74 72 70 69 69 71 72 72 72 72 76 79 80 84 89 92 92 87 83 85 87 85 84 83 82 80 81 81 83 83
3 4 5 7 8 10 11 11 11 11 11 12 13 14 17 19 21 21 22 25 27 29 31 33 36 39 42 46 48 51 53 55 56 58 60 61 63 64 64 65 66 66 68 69 70 72 73 73 73 73 73 73 72 72 73 74 75 75 75 74 73 70 67 68 69 68 66 66 72 77 79 81 86 90 89 84 83 84 84 82 80 79 78 76 77 78 80 82
2 4 6 8 9 9 9 9 9 9 11 14 15 18 20 21 22 23 26 29 30 32 35 38 40 43 46 48 50 53 55 57 59 60 62 63 64 65 66 68 69 70 71 72 72 73 75 75 76 75 75 76 76 76 76 77 77 77 78 78 78 76 73 70 69 67 62 62 69 75 78 82 88 91 87 84 85 85 82 81 78 75 74 73 75 79 81 82
4 6 7 8 7 7 7 8 9 12 16 17 18 21 23 22 23 26 29 32 34 36 38 41 44 46 48 50 52 55 57 60 62 63 64 65 66 68 69 71 72 73 74 75 75 75 77 79 79 79 79 80 80 80 80 80 80 79 81 82 82 81 79 76 75 72 67 64 67 72 76 82 90 91 85 83 85 84 81 80 78 77 76 76 78 81 81 80
6 6 6 6 5 7 9 10 14 18 19 19 22 24 23 24 27 31 33 34 36 38 41 43 45 47 50 52 55 58 60 62 63 64 65 66 68 69 71 72 73 75 75 76 77 76 77 81 82 82 82 82 82 82 81 81 81 80 81 82 81 81 80 79 77 76 74 70 70 73 76 82 91 88 84 83 84 83 82 81 81 82 80 79 79 79 78 76
6 5 5 6 8 12 13 15 19 20 20 22 25 24 25 28 31 33 35 37 39 41 43 45 47 49 52 55 58 60 62 63 63 64 66 68 70 71 72 73 74 76 77 77 78 77 76 79 82 83 83 84 83 83 83 83 82 81 80 81 81 81 82 81 78 74 74 71 71 73 74 83 92 86 80 82 83 83 83 82 81 80 79 80 79 77 76 74
5 6 7 11 14 16 18 19 21 22 24 26 26 26 29 32 33 34 37 39 40 42 44 46 48 51 55 57 59 61 62 64 65 66 68 69 71 72 73 75 76 77 78 78 79 79 78 79 82 84 85 85 85 85 85 85 85 84 83 82 82 82 82 84 82 76 72 69 69 71 74 85 94 86 80 82 83 83 82 81 79 77 78 80 78 74 72 70
7 9 13 16 18 19 20 21 23 26 28 28 27 29 32 33 35 37 39 40 42 43 45 48 50 53 55 57 59 61 63 65 67 68 69 71 72 74 75 77 78 79 80 81 82 83 83 82 83 86 87 87 88 88 87 87 87 88 87 86 85 84 82 83 85 81 77 73 70 69 74 87 94 86 82 85 85 84 82 80 79 77 78 79 74 70 70 69
11 13 17 20 21 21 21 23 27 29 29 27 28 31 33 35 37 39 40 42 43 45 47 50 52 54 56 58 60 62 64 66 68 70 71 73 75 77 79 80 81 81 83 84 85 86 87 86 85 87 89 90 90 90 90 90 90 90 89 88 87 86 84 84 86 86 85 84 79 73 75 87 94 88 85 87 86 85 82 78 76 74 76 76 73 71 71 69
15 18 21 23 23 21 23 28 30 28 27 28 30 33 35 37 39 40 41 43 44 47 49 51 53 55 57 60 62 65 67 69 71 73 75 77 79 80 82 83 84 85 86 87 87 88 89 89 88 88 90 91 91 91 92 93 93 91 90 89 87 86 85 85 86 88 90 90 87 82 81 88 94 90 87 89 88 86 82 76 73 73 75 74 72 72 70 69
19 21 24 24 22 23 28 30 26 25 28 30 33 36 38 39 40 41 42 44 46 48 51 52 54 56 59 62 65 67 70 72 75 77 79 81 82 83 84 85 86 87 88 89 89 90 91 91 91 90 91 92 92 93 94 95 95 94 91 89 89 88 88 87 85 85 87 90 89 86 85 90 95 92 91 93 92 88 84 78 74 74 76 73 71 71 69 67
22 23 24 22 23 28 31 27 24 27 31 33 36 38 39 40 41 42 43 44 47 49 51 54 56 59 62 65 68 70 72 74 76 79 81 83 85 86 87 87 88 89 90 90 91 92 93 93 93 92 93 95 95 94 94 94 95 96 94 92 91 91 91 91 90 87 88 89 88 82 79 85 92 92 90 91 90 88 85 81 77 76 75 72 69 68 66 65
23 23 23 22 26 30 28 24 26 30 33 36 38 39 40 40 40 41 43 45 48 50 52 55 58 61 65 67 70 71 72 74 76 79 81 84 86 87 88 89 90 90 91 92 92 93 94 96 95 94 93 93 93 92 91 92 94 96 97 96 94 93 91 91 91 91 90 92 93 85 76 78 86 87 85 86 86 85 84 81 78 76 73 70 66 65 63 62
23 22 22 24 27 28 26 26 29 32 35 38 39 39 39 39 40 42 44 46 48 50 53 56 60 63 66 69 71 72 73 74 76 79 82 84 86 88 90 91 91 92 93 93 93 94 95 97 99 99 97 95 94 94 93 94 95 97 98 97 94 92 91 90 89 88 86 89 95 94 83 78 82 83 82 83 83 82 81 78 76 75 71 67 64 62 61 59
21 20 22 24 26 27 27 28 31 35 37 38 38 38 38 39 40 42 44 45 47 50 53 57 60 63 66 69 72 74 74 75 77 80 83 85 87 89 91 92 93 94 94 95 95 96 96 98 100 103 104 103 103 102 101 100 99 98 97 96 95 93 92 91 88 85 84 84 91 97 91 82 80 81 81 81 80 79 76 73 72 72 70 67 64 61 59 57
20 21 23 24 25 27 28 30 33 36 38 37 37 38 38 39 41 42 43 45 47 50 54 58 61 64 66 68 71 73 74 75 78 81 83 86 88 90 92 93 94 96 96 97 97 97 97 98 100 103 105 105 105 105 104 102 101 98 96 96 96 94 92 91 88 86 85 82 83 91 95 89 85 84 84 83 80 76 71 69 68 66 66 66 64 61 59 55
20 21 22 24 26 28 29 32 35 37 37 37 37 37 38 40 41 42 43 45 47 51 55 58 61 63 65 68 71 73 74 76 79 81 84 86 89 91 93 94 96 97 97 98 98 98 98 99 99 101 103 104 104 104 103 102 101 100 99 97 96 94 92 91 91 89 88 85 80 81 87 88 85 84 84 84 81 75 68 66 66 65 63 63 64 62 60 56
20 21 22 24 27 29 30 33 35 36 36 36 37 37 38 39 41 42 44 46 48 52 56 58 61 62 64 67 70 72 74 77 79 82 84 87 89 92 94 95 97 98 98 99 100 99 99 100 100 100 102 103 103 103 102 101 102 102 100 98 96 93 91 92 93 92 91 91 88 84 85 87 86 83 82 82 81 75 68 65 66 66 63 63 64 64 62 58
20 22 23 25 27 29 31 33 34 35 35 36 37 37 38 39 40 42 44 47 50 53 55 58 60 62 64 67 70 72 74 76 79 82 84 87 90 92 94 96 98 98 99 100 101 101 101 101 101 100 101 102 102 103 103 103 102 102 100 98 95 94 93 93 92 91 92 93 94 91 88 87 88 86 82 80 78 75 70 67 66 66 64 63 63 63 62 59
21 22 24 25 27 29 31 33 33 33 34 36 36 36 37 38 40 43 45 48 50 53 55 58 60 62 65 67 70 73 75 77 80 82 85 88 91 93 96 97 98 99 100 101 102 102 102 103 102 101 101 102 102 103 103 103 103 102 100 98 96 94 94 93 91 89 90 90 92 93 90 88 87 85 83 81 79 76 72 68 65 64 63 62 61 61 60 58
21 22 24 26 28 29 31 31 31 32 33 34 35 35 36 38 41 44 46 48 51 53 55 57 60 63 66 68 71 73 75 77 80 83 86 89 92 95 97 98 99 100 101 102 103 103 104 104 104 103 103 104 104 104 103 102 102 102 100 99 97 95 93 94 94 92 92 91 90 90 90 88 86 84 82 82 83 79 74 69 64 60 59 59 58 58 58 57
21 22 24 26 28 29 30 30 30 30 31 32 33 34 36 39 42 45 47 49 51 53 55 58 61 64 66 69 72 74 75 78 81 83 86 90 93 95 97 99 100 101 102 103 104 105 106 106 107 106 106 106 106 106 105 104 103 102 101 100 98 96 94 95 96 95 95 95 93 91 89 87 85 83 81 81 83 81 75 70 65 60 58 58 58 57 56 56
Wind_Direction
201 205 209 213 216 219 220 220 222 223 225 228 232 236 240 244 248 252 255 258 261 264 266 267 269 270 272 274 276 278 280 283 285 287 288 290 291 292 293 294 294 294 294 294 294 294 294 294 293 293 293 292 292 291 291 291 290 290 289 289 288 287 286 286 285 283 282 281 280 279 278 277 277 276 275 274 273 272 272 271 270 270 270 270 270 269 269 269
202 205 209 213 217 219 221 222 224 225 227 230 234 238 241 245 248 252 256 259 263 265 267 268 270 272 274 276 279 281 283 285 288 290 291 292 293 294 294 295 295 295 295 295 295 295 294 294 293 293 292 292 292 292 291 291 291 290 289 289 288 287 287 287 286 285 284 283 283 283 281 279 279 279 278 276 274 274 274 273 272 271 271 271 271 271 270 270
203 206 209 212 217 220 222 224 226 227 230 233 236 239 243 246 250 254 258 261 265 267 269 270 272 274 276 278 281 284 286 288 290 292 293 294 294 295 295 295 296 296 296 296 295 294 294 294 293 293 293 293 292 292 292 291 291 291 290 290 290 290 290 289 288 288 287 287 286 285 283 282 282 281 280 279 277 276 275 275 274 273 272 271 271 271 271 271
205 207 209 213 217 221 224 226 228 230 232 235 239 242 245 249 252 257 261 265 268 271 272 273 274 275 277 279 283 285 287 289 291 292 293 294 295 295 295 296 296 296 295 295 294 294 294 294 294 294 294 294 293 293 292 292 292 292 293 293 293 293 293 292 292 290 289 289 288 287 285 284 284 283 282 281 279 278 277 276 275 274 273 272 272 271 271 270
206 209 211 214 218 221 225 227 229 232 235 239 242 245 248 251 255 260 266 270 272 274 274 274 275 276 279 282 285 287 289 290 291 292 293 294 295 295 296 296 295 295 294 294 294 295 295 295 295 295 295 295 295 295 295 295 295 295 295 295 295 294 294 292 291 291 290 288 288 287 286 284 284 284 283 282 281 280 279 279 278 277 276 275 274 273 273 272
207 210 213 216 219 223 226 228 230 234 238 242 245 248 251 254 259 264 270 273 274 274 274 275 276 278 281 284 286 289 290 292 292 293 294 294 295 295 295 295 294 294 294 295 295 295 296 296 296 297 297 297 297 297 297 297 296 296 295 295 294 293 291 290 289 289 288 287 287 286 286 285 284 283 283 283 283 282 281 280 279 279 278 278 277 276 275 275
207 210 213 217 220 223 226 229 232 237 242 245 248 250 254 257 262 266 271 273 274 274 275 276 278 280 283 286 288 290 292 293 293 294 294 294 294 294 294 294 294 295 295 296 296 297 297 297 298 298 298 298 297 297 296 295 295 294 293 293 292 291 291 290 289 288 288 287 287 286 286 286 285 284 283 282 282 282 281 281 280 279 279 278 278 277 277 276
207 210 213 217 220 224 227 231 235 240 244 247 250 253 256 259 263 268 271 273 274 276 278 280 282 285 287 289 290 292 293 293 294 294 294 294 294 294 295 295 295 296 296 297 297 298 298 298 298 297 297 296 295 294 294 293 293 293 293 293 292 292 291 291 290 289 289 288 288 287 287 286 285 284 283 283 283 282 282 281 280 280 279 279 278 277 276 276
207 211 214 218 222 225 229 233 237 242 245 248 251 254 258 261 266 269 272 275 277 279 282 284 286 288 290 291 292 293 293 293 293 293 294 294 295 295 296 296 297 297 297 297 297 297 297 297 296 296 295 295 295 295 295 295 295 295 295 294 294 294 293 293 292 291 291 290 289 288 287 286 285 284 283 283 282 281 281 281 280 280 279 278 278 277 276 275
209 212 216 220 223 227 231 234 239 243 247 250 254 257 261 264 268 271 274 277 280 283 286 288 289 291 291 292 292 293 293 293 293 294 294 295 296 296 296 297 297 297 297 297 297 297 296 296 296 296 297 297 297 297 298 297 297 297 296 296 295 294 294 293 292 291 290 289 288 287 286 285 284 283 282 282 281 280 280 279 278 278 277 276 276 275 275 274
210 214 218 221 225 229 232 236 241 245 249 253 257 261 264 267 271 274 277 281 283 286 288 290 291 291 291 292 292 292 292 293 294 294 295 296 296 297 297 297 297 297 297 297 297 297 298 298 299 299 299 299 299 299 299 298 297 296 295 294 293 292 291 290 290 289 288 287 287 286 285 284 283 282 281 280 280 279 279 278 278 277 276 275 274 274 273 272
211 215 219 223 227 231 235 239 243 248 252 257 261 264 267 270 274 278 281 284 286 288 289 290 290 290 291 291 291 292 292 294 294 295 296 296 297 297 297 297 297 297 297 298 299 300 300 301 301 301 301 300 299 298 298 297 296 295 294 294 293 293 293 292 291 290 289 288 287 286 285 285 284 283 282 282 281 280 279 278 278 277 276 276 275 274 273 273
212 216 221 225 229 233 237 242 246 251 256 260 263 266 271 274 278 281 283 285 287 288 288 289 289 289 290 290 291 292 293 294 295 296 296 297 297 297 297 297 298 299 300 301 302 303 302 302 301 300 300 299 298 298 298 298 298 298 298 297 297 296 295 294 294 292 291 290 288 287 286 284 283 282 282 282 281 280 279 278 277 276 276 275 274 274 273 273
213 218 222 227 231 235 241 245 250 254 258 262 267 271 275 278 280 282 284 285 286 287 288 288 288 288 290 291 292 293 294 295 296 296 297 297 297 298 299 300 301 303 303 303 303 302 301 300 300 300 301 301 301 302 302 302 302 301 301 300 299 298 297 296 295 294 292 290 289 287 287 285 284 285 284 284 284 283 282 281 280 279 278 277 276 275 274 273
216 220 225 230 234 239 244 248 253 257 261 266 270 274 277 279 281 283 284 285 286 286 286 287 288 289 291 292 293 294 295 296 297 297 297 298 299 301 303 304 304 304 303 302 301 301 301 302 303 304 305 305 305 305 305 305 305 304 304 303 302 301 300 299 297 296 296 295 294 293 293 293 293 292 292 291 289 288 287 286 285 284 283 282 280 279 278 277
219 224 229 234 238 243 247 251 256 260 264 268 272 275 277 279 281 282 283 284 284 285 286 288 289 290 291 293 294 295 296 296 296 298 300 302 304 304 304 304 304 303 303 303 303 304 306 307 308 308 309 309 309 309 309 309 308 308 307 306 305 304 304 303 303 302 302 302 301 300 300 300 299 298 297 295 294 292 291 289 288 287 287 286 284 283 282 280
222 227 232 237 241 246 250 254 258 262 266 270 273 275 278 279 281 281 282 283 284 286 287 289 290 292 293 294 295 295 296 298 300 302 304 305 304 304 303 303 304 305 307 308 310 311 311 312 313 313 314 313 313 312 312 311 310 310 309 308 308 308 307 307 307 306 306 306 305 304 304 303 301 300 299 297 296 295 293 292 290 290 289 288 287 287 285 284
225 230 235 240 244 248 253 257 261 264 268 271 274 276 277 278 279 280 283 284 286 287 289 290 292 293 294 294 296 299 301 303 304 304 304 303 303 304 305 307 309 311 313 314 315 315 316 317 318 317 316 315 315 315 314 314 313 312 312 311 311 310 309 308 308 307 307 307 306 304 304 303 302 301 299 298 296 295 293 292 291 290 289 289 289 288 287 287
227 232 237 242 246 251 255 258 262 266 269 272 274 275 276 278 280 283 284 286 287 289 291 292 292 293 295 298 301 303 304 304 303 303 303 304 307 309 312 314 316 317 317 318 319 320 320 320 319 319 318 318 318 317 317 316 315 314 313 312 311 311 309 308 308 308 307 307 305 304 304 303 302 301 300 298 297 295 294 294 293 292 291 291 290 288 288 287
229 234 239 243 248 252 257 261 264 267 269 271 273 276 278 280 282 284 285 287 289 290 291 293 295 298 301 303 303 303 303 303 304 306 309 313 315 318 319 319 320 320 322 323 323 323 322 322 322 322 322 321 321 320 319 318 316 315 314 313 312 312 311 309 308 308 307 306 305 303 305 304 302 302 301 298 297 296 295 295 294 293 293 292 290 289 289 288
229 234 240 245 250 255 259 262 265 268 270 273 276 278 280 281 283 285 287 288 290 292 295 298 301 303 303 303 303 304 306 309 313 316 318 320 320 321 321 322 324 326 326 326 325 325 325 326 325 325 325 324 323 322 321 319 318 317 316 315 314 313 312 310 309 309 307 305 304 303 304 304 301 301 300 298 296 295 295 295 293 293 292 292 291 291 290 289
231 237 244 249 253 257 261 264 267 270 273 275 276 278 280 282 284 286 288 291 295 299 301 302 303 303 303 304 307 310 314 317 320 321 321 321 323 326 327 328 328 327 326 325 326 327 328 327 327 326 326 325 324 323 321 320 319 318 317 316 315 313 313 311 310 310 308 306 305 303 304 303 301 300 300 298 296 296 295 295 293 293 294 294 294 293 292 291
236 242 247 252 256 261 265 268 270 272 273 275 276 278 281 284 286 290 294 298 301 302 302 302 303 304 307 311 315 319 321 323 324 325 328 330 331 332 331 330 329 328 327 328 328 328 328 328 328 328 328 326 326 325 324 323 321 321 319 318 317 315 313 312 311 310 309 308 306 304 304 304 302 302 301 300 299 298 297 296 296 297 297 297 296 295 293 292
241 247 253 258 262 264 266 267 269 270 273 275 278 282 286 290 294 298 300 300 300 300 302 304 307 312 317 321 324 326 328 331 333 335 336 336 335 334 333 333 332 332 333 333 332 332 331 331 331 330 330 330 329 328 328 326 325 324 322 321 319 317 316 315 313 312 310 309 308 306 306 306 305 304 303 302 300 299 298 297 298 299 299 298 296 295 294 293
248 253 257 258 259 260 261 263 266 271 276 281 286 291 295 298 299 299 299 299 300 303 307 312 318 324 327 330 333 335 338 340 342 341 340 340 339 338 337 336 336 336 336 336 335 335 335 335 335 334 334 334 333 331 331 329 327 327 326 324 322 320 319 317 316 315 313 311 309 308 307 308 308 307 303 301 300 298 297 297 299 300 299 298 298 297 296 295
246 247 247 247 248 251 257 264 272 280 287 292 296 297 298 298 297 298 300 304 308 313 319 325 331 334 337 341 343 344 345 346 345 343 343 342 341 341 340 340 340 339 340 340 339 339 339 339 339 338 338 337 335 334 333 332 330 329 328 326 324 322 321 319 318 316 315 313 310 309 309 309 310 308 303 302 301 300 300 301 303 303 302 301 300 299 297 296
221 222 226 233 244 257 269 281 289 292 295 296 295 295 295 296 299 304 310 315 322 329 335 339 343 345 348 349 348 349 349 348 346 345 345 345 345 345 345 345 345 345 345 345 344 343 343 343 342 341 340 339 338 337 336 334 333 331 330 328 326 324 323 321 319 317 316 314 311 310 310 311 314 310 305 304 303 303 304 305 305 305 304 304 302 300 298 296
196 209 228 251 271 286 291 293 294 293 292 292 293 295 299 304 311 317 324 332 340 346 351 352 352 354 355 354 353 352 350 349 349 349 350 350 351 351 351 351 350 349 348 348 347 346 346 345 344 342 341 340 339 338 337 335 334 332 332 330 327 325 322 320 319 317 316 314 311 311 311 312 315 311 306 306 306 307 307 306 306 306 305 303 301 299 297 294
194 246 282 290 293 292 290 290 290 291 292 295 299 305 312 319 326 335 346 354 358 359 360 360 359 0 359 357 355 353 352 353 355 355 356 355 355 355 354 353 352 351 350 349 348 347 346 345 344 342 341 340 339 338 336 335 333 332 331 330 327 324 322 320 319 319 318 316 313 312 313 313 313 311 308 308 310 311 311 309 309 309 306 304 302 301 298 295
301 292 286 285 284 285 288 290 292 295 299 306 315 322 330 339 350 2 8 9 8 7 5 4 4 2 360 358 358 358 359 0 360 359 359 358 357 356 355 354 353 352 351 350 348 347 346 345 344 343 342 341 340 337 336 334 332 331 331 330 328 325 323 321 321 321 321 320 315 313 315 314 313 311 309 310 313 313 311 311 313 312 309 308 307 304 300 297
259 267 272 280 286 292 295 296 299 306 315 327 337 345 357 9 17 20 17 14 13 12 9 7 6 4 3 4 4 4 4 3 2 1 360 358 357 356 356 355 354 353 352 350 349 348 347 346 345 344 342 342 341 338 336 334 333 332 331 331 330 327 325 323 322 322 322 320 316 314 317 316 313 311 309 313 315 313 311 313 314 313 311 309 306 303 301 299
252 272 287 298 303 304 302 306 316 326 340 356 6 15 24 28 28 24 20 18 16 14 12 11 11 10 10 10 8 7 6 4 2 1 359 358 357 356 356 355 355 354 353 353 352 350 348 347 347 346 344 343 342 340 337 336 335 334 332 331 330 330 329 327 325 323 324 323 320 319 320 318 313 310 311 316 317 314 315 316 314 311 309 306 304 302 301 300
281 307 314 315 314 312 317 330 341 357 17 27 31 35 36 34 30 25 23 22 20 19 19 17 16 14 13 11 9 7 5 3 2 0 359 358 357 357 357 356 356 356 356 355 354 352 349 349 348 347 346 345 344 342 340 338 337 335 333 333 333 333 333 331 328 327 329 331 327 323 322 320 314 312 317 321 319 317 318 316 313 311 309 308 308 306 304 301
336 333 326 322 322 332 353 5 18 36 43 42 41 41 39 33 29 27 26 26 25 24 23 21 18 15 13 10 8 7 5 3 1 360 359 359 359 358 358 358 358 357 357 355 354 353 350 350 349 348 347 347 346 344 342 340 339 338 336 335 335 334 334 333 332 331 333 335 332 328 326 322 315 316 322 323 319 318 318 317 317 317 316 315 312 308 304 303
351 343 337 341 359 21 32 40 50 53 52 47 45 43 37 32 31 31 31 30 28 26 23 21 18 14 12 9 8 6 4 2 1 0 0 360 0 360 359 359 358 357 357 356 355 354 351 350 350 349 348 347 346 345 343 341 340 340 337 335 335 335 334 334 334 334 334 336 335 331 329 322 316 320 326 323 321 322 321 322 322 320 319 316 311 307 307 307
4 4 14 31 45 53 55 57 59 58 53 49 46 41 36 35 35 35 34 31 28 25 23 19 16 13 11 8 6 4 3 2 2 2 2 1 1 1 360 359 359 358 358 356 355 355 352 350 350 350 348 348 347 346 344 342 341 340 339 337 337 337 335 334 334 335 334 335 336 333 331 323 318 324 328 324 324 324 323 324 322 320 319 316 311 311 311 311
36 44 53 59 63 65 64 62 62 58 52 49 45 40 38 39 39 37 34 31 27 25 22 19 16 13 10 7 5 5 4 4 4 4 4 3 2 1 0 360 360 359 358 357 356 355 354 352 350 350 349 349 348 347 345 343 342 342 342 341 339 338 337 334 333 335 335 336 337 335 334 326 322 327 329 326 326 324 324 324 323 323 321 315 312 313 313 312
60 62 67 70 70 69 67 64 60 55 51 49 44 41 41 41 40 36 33 30 27 24 21 18 15 12 10 8 7 6 6 6 6 6 5 4 3 2 2 1 0 360 359 358 357 356 356 354 352 351 350 349 349 348 347 345 344 344 344 343 341 339 338 335 334 335 336 338 337 338 339 330 325 329 331 328 327 325 326 327 326 325 320 313 314 316 315 315
68 70 74 75 73 72 68 62 57 54 52 48 44 44 44 42 38 35 32 30 27 23 20 17 14 12 11 10 9 9 10 9 8 7 6 5 4 3 2 1 1 0 359 359 358 356 356 356 354 352 350 350 350 348 347 346 346 346 345 344 342 340 340 338 337 337 338 339 339 341 343 334 328 331 332 328 327 326 327 328 327 325 319 316 320 320 318 318
75 76 77 76 75 72 64 59 57 55 51 47 46 46 44 40 37 34 31 29 26 22 19 17 15 15 13 12 12 12 11 10 9 8 6 5 4 3 2 2 1 1 360 359 359 357 356 356 354 353 351 351 350 349 348 346 346 346 346 345 343 341 341 340 340 339 339 339 340 342 345 337 330 332 332 328 327 328 327 328 329 326 321 321 323 321 320 320
80 79 79 78 76 68 62 60 58 54 50 49 49 46 43 39 36 34 31 27 24 21 20 19 18 16 15 14 14 13 12 11 9 8 6 5 4 3 2 2 1 1 360 359 359 358 356 355 355 353 352 352 351 350 349 348 346 346 346 346 345 343 343 342 342 342 341 339 340 342 344 338 331 332 333 329 328 328 328 330 333 329 324 325 325 322 320 319
82 81 80 78 71 66 65 62 56 53 52 50 48 44 41 39 36 33 29 26 24 22 22 21 19 17 16 16 15 13 12 11 9 7 6 5 4 3 3 2 1 1 360 359 358 358 357 356 355 354 353 352 352 351 350 348 347 347 347 348 348 346 345 343 342 345 344 340 338 342 344 339 332 332 333 329 328 329 329 333 335 329 325 326 325 322 321 320
83 81 78 73 69 68 66 60 55 55 53 49 47 44 41 38 34 31 28 26 25 25 23 22 19 18 17 16 15 14 12 10 8 7 6 4 4 3 3 2 1 1 360 359 358 357 356 356 355 355 354 353 352 351 350 349 348 348 349 350 350 347 345 344 343 346 345 340 337 340 345 341 333 332 331 328 329 330 332 335 334 329 327 327 325 323 323 321
83 79 75 70 70 70 65 59 57 55 52 49 47 44 40 37 33 30 28 28 27 25 23 21 19 17 16 15 14 12 11 10 8 7 5 4 4 3 3 2 1 1 360 359 359 357 356 355 354 355 355 354 353 353 352 351 351 351 350 350 350 347 345 344 345 346 344 341 338 338 343 342 335 332 332 331 331 332 334 337 334 329 327 327 326 325 325 323
83 77 73 71 70 68 64 60 58 55 52 50 46 42 38 34 32 30 29 29 27 24 22 19 17 16 14 13 12 11 10 9 8 7 6 5 4 3 3 2 2 1 0 360 359 358 357 355 354 354 354 354 354 354 353 353 353 352 350 349 349 349 346 344 345 346 345 344 342 338 340 342 338 334 334 333 333 334 337 338 333 329 329 329 328 328 327 326
80 75 73 72 70 67 64 60 58 55 52 49 44 41 37 34 33 31 30 28 25 22 19 17 15 13 12 11 10 10 9 8 7 7 6 5 4 4 3 3 2 2 1 0 360 359 357 356 355 354 354 354 354 354 354 353 353 352 351 350 350 349 347 344 345 347 346 346 345 340 339 341 340 338 337 336 334 335 339 339 334 332 332 330 329 329 328 328
80 77 75 72 69 67 64 60 58 55 52 47 43 40 37 35 34 32 29 26 22 19 17 15 13 11 10 10 9 8 8 8 7 7 6 5 5 4 4 4 3 2 2 1 0 360 358 357 356 355 354 355 354 354 354 353 352 352 352 351 351 349 347 344 346 348 346 345 346 343 341 341 341 340 338 336 335 336 341 340 337 336 335 332 331 330 330 330
82 79 76 73 71 68 64 61 58 55 50 46 42 39 37 35 33 31 27 23 20 17 15 13 11 10 10 9 8 8 8 7 7 7 7 6 5 5 4 4 3 3 2 2 1 0 359 358 358 356 355 355 355 355 354 354 353 353 352 351 350 349 348 347 348 348 346 345 346 346 345 344 342 341 340 337 335 337 342 343 341 339 337 335 333 332 332 333
84 81 77 74 72 68 64 61 58 53 48 44 40 39 37 34 31 29 25 22 19 16 14 12 11 10 10 9 8 8 7 7 8 7 7 6 5 5 5 5 4 3 3 2 1 1 0 359 359 358 356 356 356 355 355 355 354 353 353 351 351 351 350 348 349 349 347 347 347 347 348 347 344 343 342 338 336 338 343 346 344 341 339 337 335 333 333 333
85 82 79 75 71 67 64 61 56 50 45 41 39 37 35 32 29 25 23 21 18 16 14 12 11 10 10 9 8 8 7 7 8 8 8 7 6 6 5 5 4 3 3 3 2 1 1 0 360 359 357 357 357 356 356 355 354 353 353 352 352 353 351 349 350 351 349 348 349 348 349 348 345 344 343 340 338 341 344 346 345 343 340 337 335 334 333 333
88 84 79 74 71 67 63 59 54 48 43 39 37 35 33 29 26 23 21 19 18 16 14 12 11 10 10 9 8 8 7 8 8 8 8 7 6 6 5 4 3 3 3 3 2 2 1 1 0 360 358 358 358 357 357 356 355 354 354 353 354 355 353 350 350 352 350 350 351 350 349 348 345 345 346 343 340 341 344 345 345 344 341 338 337 336 335 334
90 84 78 74 70 66 61 56 50 45 41 38 36 34 30 26 23 22 20 18 17 15 13 12 11 10 9 8 8 8 8 8 9 9 8 7 6 6 5 4 3 3 3 3 2 2 1 1 0 360 359 359 358 358 357 356 355 354 355 355 355 355 355 353 351 352 352 351 351 351 350 348 345 346 348 346 341 340 343 345 344 344 343 341 339 338 337 335
Height
10702 10705 10708 10711 10713 10716 10719 10721 10722 10723 10723 10724 10725 10726 10728 10729 10729 10729 10729 10730 10730 10729 10729 10728 10727 10726 10725 10724 10723 10721 10719 10717 10714 10712 10709 10707 10704 10701 10698 10695 10692 10689 10686 10683 10680 10678 10676 10673 10670 10668 10665 10662 10659 10656 10652 10649 10646 10643 10641 10638 10636 10633 10629 10628 10627 10623 10619 10616 10615 10615 10613 10605 10602 10602 10601 10604 10600 10594 10593 10592 10592 10589 10585 10583 10581 10579 10578 10576
10701 10704 10707 10710 10713 10716 10718 10720 10720 10721 10721 10722 10724 10725 10727 10727 10727 10728 10728 10728 10728 10727 10726 10725 10724 10723 10722 10721 10719 10717 10715 10713 10710 10707 10704 10701 10699 10696 10693 10690 10686 10683 10680 10677 10674 10672 10670 10668 10665 10663 10659 10656 10653 10649 10645 10641 10639 10635 10633 10630 10627 10625 10622 10620 10618 10614 10611 10609 10607 10606 10605 10597 10594 10594 10592 10595 10593 10586 10585 10583 10582 10581 10578 10576 10573 10571 10569 10567
10700 10704 10707 10710 10713 10715 10717 10718 10719 10719 10720 10721 10723 10724 10725 10726 10726 10726 10726 10726 10725 10725 10724 10723 10722 10720 10719 10717 10715 10713 10711 10708 10705 10702 10699 10696 10693 10690 10688 10684 10681 10678 10675 10672 10669 10666 10664 10661 10659 10656 10653 10650 10646 10642 10638 10634 10631 10628 10625 10623 10620 10619 10616 10613 10611 10608 10604 10602 10600 10600 10598 10591 10587 10586 10584 10585 10585 10580 10578 10576 10574 10573 10571 10569 10566 10564 10562 10559
10701 10704 10707 10710 10712 10714 10715 10717 10717 10718 10719 10721 10722 10723 10724 10724 10725 10724 10724 10724 10723 10722 10721 10720 10719 10717 10715 10713 10711 10709 10706 10704 10701 10698 10695 10692 10689 10686 10683 10679 10676 10673 10670 10667 10664 10661 10658 10655 10652 10649 10646 10642 10639 10635 10631 10628 10625 10621 10619 10617 10614 10613 10611 10607 10604 10602 10599 10596 10594 10592 10592 10588 10581 10578 10575 10575 10575 10572 10570 10568 10566 10564 10563 10561 10559 10557 10555 10552
10701 10704 10706 10708 10710 10712 10714 10715 10716 10717 10719 10720 10722 10723 10723 10723 10723 10722 10722 10722 10721 10720 10718 10717 10715 10713 10711 10709 10707 10704 10702 10699 10696 10694 10691 10688 10684 10681 10677 10674 10671 10668 10665 10661 10658 10655 10651 10648 10645 10641 10638 10635 10632 10629 10625 10622 10620 10617 10613 10611 10609 10607 10606 10602 10599 10596 10593 10590 10587 10584 10583 10582 10577 10571 10566 10564 10564 10563 10561 10558 10556 10554 10552 10550 10549 10548 10545 10543
10700 10703 10705 10707 10709 10711 10713 10714 10715 10717 10719 10720 10721 10721 10721 10721 10721 10721 10720 10720 10718 10717 10715 10713 10711 10710 10708 10705 10703 10700 10698 10695 10692 10689 10686 10683 10680 10676 10673 10669 10666 10663 10660 10656 10653 10649 10646 10642 10638 10635 10632 10629 10626 10623 10620 10617 10614 10612 10608 10606 10603 10601 10600 10597 10593 10590 10586 10583 10580 10577 10574 10572 10569 10564 10559 10555 10552 10551 10550 10548 10545 10543 10540 10538 10537 10536 10534 10532
10700 10702 10704 10706 10708 10710 10712 10714 10716 10717 10718 10719 10719 10719 10719 10719 10719 10719 10718 10717 10716 10714 10711 10709 10708 10706 10704 10701 10699 10696 10693 10691 10687 10684 10681 10678 10675 10671 10668 10665 10662 10658 10654 10651 10647 10643 10640 10636 10633 10630 10627 10624 10621 10618 10615 10612 10609 10606 10603 10600 10597 10594 10592 10590 10587 10583 10580 10576 10573 10570 10566 10563 10559 10556 10551 10547 10544 10541 10539 10537 10534 10532 10529 10527 10524 10522 10521 10518
10699 10701 10703 10706 10708 10710 10712 10714 10715 10716 10717 10717 10717 10718 10718 10718 10717 10717 10716 10714 10712 10710 10708 10706 10704 10702 10700 10698 10695 10692 10689 10686 10683 10679 10676 10673 10670 10667 10664 10660 10656 10653 10649 10645 10642 10638 10635 10632 10629 10626 10623 10619 10616 10613 10610 10607 10604 10601 10598 10594 10590 10588 10585 10582 10578 10575 10572 10569 10565 10562 10558 10555 10549 10545 10542 10537 10534 10531 10528 10526 10523 10521 10518 10515 10513 10510 10507 10504
10698 10701 10704 10706 10708 10711 10712 10713 10714 10715 10715 10715 10716 10716 10716 10716 10715 10714 10712 10710 10708 10706 10704 10702 10701 10699 10696 10694 10691 10688 10685 10682 10678 10675 10672 10668 10665 10662 10659 10655 10651 10648 10644 10641 10637 10634 10631 10628 10624 10621 10618 10614 10611 10608 10604 10601 10598 10595 10591 10588 10584 10581 10577 10574 10570 10567 10563 10560 10557 10554 10550 10545 10539 10534 10532 10528 10524 10521 10517 10515 10511 10509 10506 10503 10500 10496 10493 10490
10698 10701 10704 10706 10708 10710 10711 10712 10713 10713 10713 10714 10714 10714 10714 10714 10713 10711 10709 10707 10705 10703 10702 10700 10698 10695 10693 10690 10687 10684 10680 10677 10674 10670 10667 10664 10661 10657 10654 10650 10646 10643 10640 10637 10633 10630 10627 10623 10620 10616 10613 10609 10606 10602 10599 10595 10591 10588 10584 10580 10577 10573 10570 10566 10562 10558 10554 10550 10548 10546 10542 10537 10529 10523 10522 10518 10513 10510 10507 10503 10499 10496 10493 10490 10487 10483 10480 10476
10699 10702 10704 10706 10707 10709 10710 10711 10711 10712 10712 10712 10713 10712 10712 10711 10709 10708 10706 10704 10702 10701 10699 10697 10694 10692 10689 10686 10683 10679 10676 10673 10669 10666 10663 10659 10656 10653 10649 10646 10643 10639 10636 10633 10629 10626 10622 10619 10615 10612 10608 10604 10601 10597 10593 10589 10585 10581 10577 10573 10569 10566 10562 10558 10555 10551 10545 10540 10537 10535 10532 10528 10518 10511 10511 10507 10503 10499 10496 10491 10486 10483 10479 10476 10473 10470 10466 10462
10699 10702 10703 10705 10706 10708 10709 10709 10710 10710 10711 10711 10711 10710 10709 10708 10706 10705 10703 10702 10700 10698 10696 10694 10691 10688 10685 10682 10678 10675 10672 10669 10665 10662 10658 10655 10652 10649 10646 10642 10639 10636 10633 10629 10626 10622 10618 10614 10610 10606 10602 10598 10594 10591 10587 10583 10578 10574 10570 10566 10560 10557 10553 10546 10543 10541 10536 10530 10527 10524 10521 10518 10508 10498 10497 10494 10491 10487 10483 10479 10474 10469 10465 10461 10459 10456 10452 10448
10699 10701 10703 10704 10706 10707 10707 10708 10709 10709 10709 10709 10708 10707 10706 10705 10704 10702 10701 10699 10697 10695 10692 10690 10687 10684 10681 10678 10675 10671 10668 10665 10662 10658 10655 10652 10649 10645 10643 10639 10636 10632 10629 10625 10621 10617 10612 10608 10604 10600 10596 10592 10587 10583 10580 10575 10570 10565 10561 10557 10550 10547 10544 10537 10530 10527 10524 10518 10515 10513 10510 10509 10501 10489 10486 10483 10478 10475 10470 10466 10461 10457 10453 10449 10444 10442 10440 10435
10699 10700 10702 10703 10705 10706 10707 10707 10708 10708 10707 10706 10706 10705 10704 10703 10701 10700 10698 10696 10694 10691 10689 10686 10683 10680 10677 10674 10671 10668 10664 10661 10658 10655 10652 10649 10646 10643 10640 10636 10632 10628 10624 10620 10616 10612 10608 10604 10600 10595 10591 10586 10580 10576 10572 10567 10562 10557 10552 10548 10542 10536 10534 10529 10522 10515 10513 10508 10503 10502 10499 10497 10492 10481 10476 10472 10466 10462 10457 10451 10446 10443 10439 10435 10431 10428 10426 10423
10698 10700 10701 10703 10704 10705 10706 10706 10706 10705 10705 10704 10703 10702 10701 10700 10699 10697 10695 10693 10691 10688 10685 10682 10679 10677 10674 10671 10667 10664 10661 10658 10655 10653 10650 10647 10643 10639 10636 10632 10628 10624 10620 10616 10612 10608 10603 10599 10594 10589 10584 10579 10574 10569 10565 10560 10555 10549 10544 10539 10533 10528 10522 10519 10513 10505 10500 10496 10490 10489 10487 10483 10478 10469 10462 10458 10452 10447 10442 10436 10431 10427 10423 10419 10416 10413 10410 10407
10698 10699 10701 10702 10703 10703 10704 10704 10703 10703 10703 10702 10701 10700 10699 10698 10696 10694 10692 10690 10687 10684 10682 10679 10676 10673 10671 10667 10664 10661 10659 10656 10653 10650 10647 10643 10639 10635 10631 10627 10624 10620 10616 10612 10607 10603 10598 10594 10589 10583 10578 10573 10567 10562 10558 10553 10548 10543 10537 10532 10526 10520 10513 10507 10502 10495 10489 10483 10476 10473 10473 10471 10465 10456 10449 10443 10438 10432 10427 10422 10418 10413 10408 10404 10400 10397 10393 10390
10697 10699 10700 10701 10701 10701 10702 10702 10701 10701 10701 10700 10699 10698 10697 10695 10693 10691 10689 10686 10684 10681 10678 10675 10673 10670 10668 10665 10662 10659 10657 10654 10651 10647 10643 10639 10636 10632 10628 10624 10620 10616 10611 10606 10601 10597 10592 10588 10583 10578 10572 10567 10561 10556 10552 10547 10541 10535 10529 10524 10518 10510 10504 10497 10492 10486 10480 10475 10466 10461 10459 10458 10455 10446 10437 10431 10424 10419 10413 10408 10405 10399 10394 10390 10385 10381 10376 10372
10697 10697 10698 10698 10699 10700 10700 10700 10700 10700 10699 10698 10697 10696 10694 10693 10690 10688 10686 10683 10680 10678 10675 10673 10670 10668 10665 10663 10660 10657 10654 10651 10647 10643 10640 10636 10633 10629 10625 10620 10616 10612 10607 10602 10597 10592 10588 10583 10579 10573 10568 10563 10557 10550 10544 10539 10534 10528 10521 10516 10510 10504 10496 10489 10485 10480 10474 10468 10459 10453 10449 10445 10444 10439 10428 10420 10413 10406 10400 10395 10391 10386 10381 10377 10373 10367 10361 10356
10695 10695 10696 10697 10698 10698 10698 10698 10698 10698 10697 10696 10695 10693 10692 10689 10687 10685 10682 10680 10678 10675 10673 10670 10668 10666 10663 10661 10658 10654 10651 10647 10643 10640 10637 10633 10630 10625 10621 10616 10612 10608 10604 10599 10593 10588 10584 10579 10575 10569 10564 10558 10552 10545 10538 10533 10527 10522 10516 10510 10506 10501 10492 10484 10479 10474 10469 10465 10454 10445 10443 10434 10430 10430 10419 10408 10401 10392 10386 10382 10376 10370 10366 10363 10358 10353 10348 10342
10693 10694 10695 10696 10696 10697 10697 10697 10697 10696 10695 10694 10692 10691 10689 10686 10684 10682 10680 10678 10675 10673 10671 10668 10666 10664 10661 10658 10654 10651 10647 10644 10640 10637 10633 10629 10625 10621 10617 10613 10608 10604 10600 10595 10590 10585 10580 10575 10569 10564 10558 10552 10546 10540 10534 10528 10522 10516 10511 10505 10499 10495 10489 10479 10473 10468 10460 10458 10450 10438 10437 10428 10415 10417 10411 10396 10388 10380 10373 10368 10361 10356 10351 10347 10343 10338 10333 10328
10692 10693 10694 10695 10696 10696 10696 10696 10695 10694 10693 10691 10689 10688 10686 10684 10682 10680 10678 10676 10673 10671 10669 10666 10664 10661 10658 10654 10651 10647 10644 10641 10637 10633 10630 10626 10623 10619 10615 10610 10606 10601 10596 10592 10586 10581 10575 10570 10564 10558 10553 10547 10541 10536 10529 10523 10517 10511 10505 10499 10493 10488 10484 10474 10464 10462 10453 10449 10445 10433 10430 10423 10406 10403 10403 10389 10377 10369 10363 10357 10349 10343 10340 10334 10330 10325 10319 10313
10692 10693 10694 10694 10695 10695 10695 10694 10693 10692 10690 10689 10687 10685 10684 10682 10680 10678 10676 10674 10671 10669 10667 10664 10661 10658 10655 10651 10648 10645 10642 10639 10636 10633 10629 10625 10621 10616 10612 10607 10602 10597 10593 10589 10583 10577 10571 10566 10560 10554 10549 10543 10537 10531 10524 10518 10512 10506 10499 10493 10487 10479 10477 10471 10458 10451 10442 10436 10435 10429 10425 10419 10401 10391 10390 10382 10368 10358 10352 10344 10335 10332 10329 10323 10316 10310 10304 10298
10692 10693 10693 10693 10693 10693 10692 10691 10690 10689 10688 10687 10685 10684 10682 10681 10678 10676 10674 10672 10669 10667 10665 10662 10658 10655 10652 10649 10647 10643 10640 10637 10634 10630 10626 10621 10617 10612 10608 10603 10599 10594 10588 10583 10578 10574 10568 10563 10556 10550 10544 10537 10531 10525 10518 10511 10505 10499 10492 10485 10480 10471 10464 10463 10457 10447 10434 10422 10418 10417 10417 10412 10396 10381 10376 10369 10356 10345 10339 10328 10321 10319 10315 10309 10303 10295 10289 10283
10691 10692 10692 10692 10691 10691 10690 10689 10688 10688 10687 10686 10684 10683 10681 10678 10676 10674 10672 10670 10668 10665 10662 10659 10656 10653 10651 10648 10645 10642 10638 10635 10630 10626 10622 10617 10613 10609 10604 10600 10595 10590 10584 10578 10572 10567 10562 10557 10552 10546 10540 10532 10526 10519 10512 10505 10497 10492 10485 10477 10471 10464 10454 10448 10445 10441 10431 10416 10403 10398 10402 10402 10390 10372 10361 10355 10344 10332 10325 10317 10311 10310 10304 10297 10290 10281 10275 10268
10690 10690 10690 10690 10689 10689 10688 10688 10688 10687 10686 10684 10682 10680 10678 10676 10674 10672 10670 10668 10665 10663 10660 10657 10655 10652 10649 10646 10643 10639 10636 10631 10627 10623 10619 10615 10610 10606 10601 10596 10592 10586 10581 10575 10568 10563 10558 10553 10547 10541 10535 10528 10521 10514 10508 10500 10492 10484 10477 10469 10461 10454 10447 10438 10431 10426 10420 10409 10394 10384 10384 10388 10385 10364 10342 10338 10333 10320 10312 10306 10302 10299 10292 10284 10278 10269 10261 10253
10688 10688 10688 10688 10688 10688 10688 10688 10687 10685 10684 10682 10680 10679 10677 10675 10673 10671 10669 10666 10663 10661 10659 10656 10653 10651 10648 10644 10640 10637 10632 10629 10625 10622 10618 10614 10608 10604 10598 10593 10588 10583 10578 10572 10565 10559 10553 10547 10541 10535 10529 10522 10514 10507 10500 10493 10485 10476 10468 10460 10451 10442 10435 10427 10419 10411 10405 10397 10383 10370 10365 10370 10377 10360 10330 10320 10317 10305 10299 10294 10289 10283 10276 10270 10264 10255 10246 10237
10687 10688 10688 10688 10688 10688 10687 10686 10685 10683 10682 10680 10679 10677 10676 10674 10671 10669 10667 10665 10662 10660 10657 10655 10652 10649 10645 10642 10638 10635 10631 10627 10624 10620 10616 10612 10607 10602 10596 10591 10585 10579 10574 10568 10561 10554 10548 10541 10534 10527 10521 10514 10507 10499 10491 10484 10476 10468 10460 10452 10443 10434 10426 10417 10410 10401 10393 10386 10374 10359 10347 10347 10359 10348 10319 10307 10300 10290 10287 10282 10275 10269 10261 10255 10248 10240 10232 10224
10688 10688 10688 10688 10687 10686 10685 10684 10683 10682 10681 10679 10678 10676 10674 10671 10669 10668 10666 10664 10662 10659 10656 10653 10650 10646 10643 10639 10636 10633 10630 10626 10622 10618 10613 10609 10604 10599 10593 10588 10581 10574 10569 10562 10556 10548 10541 10534 10526 10519 10512 10505 10498 10490 10482 10475 10468 10460 10452 10444 10433 10425 10417 10408 10401 10393 10385 10376 10365 10354 10338 10328 10338 10334 10308 10293 10284 10275 10272 10266 10261 10257 10248 10241 10233 10226 10219 10209
10687 10687 10686 10686 10685 10684 10684 10683 10682 10681 10680 10678 10676 10674 10672 10670 10669 10667 10665 10663 10661 10658 10655 10652 10648 10645 10641 10638 10635 10632 10628 10624 10620 10616 10611 10606 10601 10595 10590 10584 10577 10570 10562 10555 10548 10540 10534 10528 10520 10513 10506 10498 10490 10482 10474 10466 10459 10452 10445 10438 10428 10417 10409 10400 10393 10386 10379 10369 10353 10344 10333 10316 10315 10317 10301 10287 10276 10264 10254 10246 10246 10243 10233 10225 10218 10210 10202 10190
10686 10686 10685 10685 10684 10684 10683 10682 10681 10680 10678 10676 10674 10673 10671 10670 10668 10666 10664 10662 10660 10657 10654 10650 10647 10644 10641 10637 10633 10630 10625 10621 10617 10612 10608 10603 10597 10592 10585 10579 10572 10564 10556 10549 10542 10535 10528 10522 10514 10506 10499 10492 10484 10475 10467 10458 10451 10445 10438 10433 10425 10413 10402 10392 10384 10377 10370 10363 10345 10332 10325 10307 10293 10290 10284 10279 10273 10259 10244 10235 10231 10224 10215 10208 10199 10190 10180 10171
10685 10685 10685 10684 10684 10683 10682 10681 10679 10678 10676 10675 10674 10673 10672 10670 10667 10666 10664 10661 10658 10655 10652 10648 10645 10642 10639 10635 10631 10627 10622 10618 10614 10608 10603 10598 10592 10586 10580 10573 10567 10560 10553 10546 10538 10530 10523 10515 10508 10501 10493 10486 10479 10470 10460 10452 10443 10435 10427 10421 10416 10410 10400 10388 10379 10370 10362 10357 10343 10327 10319 10304 10285 10272 10265 10268 10267 10252 10239 10232 10223 10212 10203 10195 10185 10174 10164 10154
10685 10685 10684 10684 10683 10682 10681 10679 10678 10677 10676 10675 10674 10673 10671 10669 10667 10665 10662 10659 10656 10653 10651 10647 10644 10641 10637 10634 10630 10626 10622 10617 10613 10607 10601 10595 10589 10583 10578 10572 10567 10560 10553 10545 10535 10526 10517 10510 10503 10497 10489 10481 10475 10467 10456 10445 10435 10426 10417 10409 10403 10398 10393 10383 10372 10366 10360 10352 10336 10318 10307 10296 10280 10263 10257 10257 10250 10238 10229 10222 10214 10203 10194 10185 10172 10161 10150 10139
10684 10684 10683 10683 10682 10680 10679 10678 10677 10677 10676 10675 10674 10672 10670 10668 10667 10664 10661 10658 10655 10652 10649 10646 10643 10640 10637 10633 10629 10625 10621 10616 10611 10605 10600 10594 10588 10581 10575 10569 10562 10555 10548 10540 10532 10523 10514 10506 10498 10491 10483 10474 10466 10457 10447 10437 10427 10417 10405 10395 10386 10377 10373 10368 10359 10352 10350 10344 10329 10310 10296 10281 10262 10249 10249 10245 10230 10221 10217 10209 10202 10193 10181 10170 10157 10144 10134 10125
10684 10683 10682 10681 10680 10679 10678 10678 10677 10677 10676 10676 10674 10671 10670 10668 10666 10663 10660 10657 10655 10652 10649 10647 10643 10640 10636 10633 10629 10625 10620 10614 10608 10602 10596 10590 10584 10578 10570 10564 10556 10549 10542 10534 10526 10518 10508 10499 10491 10482 10474 10465 10455 10445 10435 10425 10416 10406 10393 10380 10371 10361 10354 10348 10339 10330 10328 10328 10319 10304 10289 10269 10245 10236 10240 10234 10218 10209 10204 10194 10184 10174 10163 10153 10143 10130 10122 10116
10683 10682 10681 10680 10679 10678 10678 10678 10677 10676 10676 10675 10672 10671 10670 10668 10665 10662 10660 10657 10655 10652 10649 10646 10643 10640 10636 10632 10627 10623 10618 10612 10606 10599 10593 10587 10581 10575 10568 10561 10553 10546 10538 10530 10522 10513 10502 10491 10483 10474 10464 10456 10448 10439 10428 10418 10408 10399 10387 10375 10366 10355 10344 10336 10329 10319 10311 10310 10305 10293 10281 10259 10235 10233 10234 10220 10207 10197 10187 10178 10168 10159 10152 10142 10131 10120 10112 10106
10682 10681 10680 10679 10679 10679 10679 10678 10677 10677 10676 10674 10672 10672 10670 10667 10664 10662 10660 10657 10655 10652 10649 10646 10643 10639 10635 10630 10625 10620 10615 10610 10604 10598 10592 10585 10578 10571 10564 10558 10551 10543 10535 10526 10518 10511 10501 10489 10478 10470 10461 10451 10442 10432 10421 10410 10401 10394 10384 10371 10358 10346 10335 10325 10321 10317 10306 10301 10296 10283 10272 10247 10222 10227 10227 10207 10195 10186 10176 10170 10160 10151 10141 10128 10117 10109 10103 10097
10681 10680 10679 10679 10679 10680 10680 10679 10678 10677 10675 10673 10673 10672 10669 10666 10664 10662 10660 10657 10655 10652 10649 10646 10642 10638 10634 10629 10623 10618 10613 10607 10601 10595 10589 10582 10575 10568 10561 10554 10546 10538 10530 10522 10514 10506 10499 10487 10474 10465 10455 10445 10436 10426 10415 10403 10392 10384 10374 10363 10351 10339 10328 10313 10305 10305 10299 10295 10289 10276 10263 10232 10206 10212 10212 10196 10186 10177 10169 10162 10150 10140 10129 10114 10107 10102 10094 10087
10680 10680 10679 10680 10680 10681 10680 10679 10678 10676 10674 10674 10674 10671 10668 10666 10664 10662 10660 10657 10655 10652 10649 10645 10642 10638 10634 10628 10623 10617 10611 10605 10598 10592 10586 10579 10572 10565 10558 10550 10542 10535 10526 10518 10509 10500 10493 10483 10470 10458 10448 10439 10428 10417 10407 10396 10384 10372 10360 10352 10341 10329 10322 10308 10293 10286 10281 10278 10274 10268 10256 10224 10197 10200 10196 10182 10174 10164 10158 10151 10138 10129 10117 10103 10099 10093 10084 10076
10681 10680 10680 10681 10681 10682 10681 10678 10676 10675 10676 10676 10674 10670 10668 10666 10664 10662 10660 10657 10654 10652 10648 10645 10641 10637 10632 10628 10622 10616 10610 10603 10597 10590 10583 10576 10569 10561 10553 10546 10538 10531 10522 10513 10503 10492 10484 10476 10466 10453 10441 10430 10419 10408 10397 10385 10375 10365 10352 10342 10332 10319 10310 10299 10284 10270 10261 10256 10251 10250 10245 10216 10188 10189 10183 10168 10162 10153 10146 10142 10132 10120 10106 10093 10088 10081 10073 10066
10681 10681 10682 10681 10682 10683 10680 10677 10676 10678 10678 10676 10673 10670 10668 10667 10664 10662 10659 10657 10654 10651 10648 10645 10641 10637 10632 10626 10620 10614 10608 10602 10594 10587 10580 10572 10565 10557 10549 10541 10533 10525 10516 10507 10499 10488 10477 10469 10461 10451 10438 10426 10415 10402 10389 10374 10363 10357 10347 10336 10326 10314 10303 10292 10279 10264 10248 10240 10232 10228 10226 10204 10179 10177 10172 10156 10149 10143 10137 10133 10125 10111 10096 10087 10080 10071 10063 10057
10683 10683 10683 10683 10684 10681 10678 10678 10680 10680 10678 10675 10672 10670 10668 10667 10664 10662 10659 10657 10654 10651 10648 10644 10640 10636 10631 10625 10619 10612 10606 10599 10591 10584 10577 10569 10561 10554 10546 10537 10529 10520 10511 10502 10494 10485 10475 10465 10455 10446 10435 10424 10412 10397 10383 10370 10357 10348 10341 10332 10319 10305 10292 10280 10274 10267 10250 10235 10227 10219 10212 10193 10169 10163 10158 10142 10132 10128 10123 10119 10114 10100 10086 10080 10073 10063 10056 10049
10684 10685 10684 10684 10683 10680 10679 10682 10682 10679 10677 10675 10672 10671 10669 10667 10665 10662 10660 10657 10654 10651 10647 10644 10640 10635 10629 10623 10617 10610 10603 10596 10589 10582 10574 10565 10558 10550 10542 10533 10525 10516 10507 10498 10489 10480 10471 10462 10453 10442 10428 10415 10404 10393 10381 10369 10356 10344 10333 10323 10309 10294 10281 10267 10257 10253 10243 10230 10225 10225 10219 10197 10169 10158 10152 10137 10125 10118 10109 10103 10099 10089 10078 10072 10065 10057 10049 10042
10686 10686 10686 10685 10682 10681 10683 10684 10681 10678 10677 10675 10673 10671 10669 10667 10665 10663 10660 10657 10654 10651 10647 10643 10638 10633 10627 10621 10615 10609 10602 10595 10587 10579 10572 10564 10556 10547 10538 10530 10521 10512 10503 10493 10484 10474 10464 10456 10449 10442 10431 10418 10407 10396 10384 10369 10354 10338 10322 10310 10299 10287 10277 10265 10251 10240 10231 10216 10206 10210 10216 10201 10175 10161 10152 10137 10124 10114 10104 10096 10089 10080 10071 10065 10059 10051 10044 10036
10688 10687 10687 10685 10683 10684 10685 10684 10681 10679 10677 10675 10674 10672 10670 10668 10666 10663 10661 10657 10654 10651 10647 10642 10637 10632 10626 10619 10613 10607 10600 10593 10585 10577 10569 10561 10553 10544 10535 10526 10517 10508 10499 10490 10480 10469 10458 10447 10436 10430 10426 10418 10408 10395 10382 10366 10349 10332 10315 10304 10296 10285 10272 10262 10253 10245 10235 10218 10194 10185 10196 10195 10174 10157 10147 10132 10119 10109 10100 10092 10081 10070 10064 10059 10052 10044 10037 10029
10689 10689 10687 10686 10685 10685 10685 10684 10682 10679 10677 10676 10675 10673 10671 10669 10666 10664 10661 10658 10654 10650 10646 10641 10636 10630 10624 10618 10611 10604 10597 10590 10583 10575 10567 10559 10550 10541 10532 10523 10514 10504 10495 10485 10475 10464 10453 10440 10426 10414 10405 10396 10386 10374 10362 10350 10339 10327 10315 10302 10292 10281 10267 10256 10250 10244 10235 10224 10198 10171 10171 10179 10168 10150 10138 10126 10114 10105 10098 10091 10078 10065 10056 10049 10042 10037 10030 10023
10690 10690 10688 10688 10687 10687 10686 10684 10682 10680 10678 10677 10675 10674 10672 10670 10667 10664 10661 10657 10654 10650 10645 10640 10635 10629 10622 10616 10610 10604 10597 10589 10581 10573 10565 10556 10547 10538 10529 10520 10510 10501 10491 10481 10471 10460 10449 10437 10422 10408 10395 10384 10372 10361 10350 10339 10331 10324 10313 10300 10285 10274 10262 10251 10245 10237 10225 10221 10210 10180 10157 10155 10150 10135 10122 10114 10106 10100 10096 10088 10076 10063 10052 10041 10034 10028 10022 10017
10691 10691 10690 10689 10688 10687 10686 10685 10682 10681 10679 10678 10676 10675 10673 10670 10668 10664 10661 10657 10653 10649 10644 10639 10634 10628 10622 10616 10609 10602 10595 10587 10579 10571 10562 10554 10545 10537 10527 10518 10508 10499 10488 10478 10468 10458 10446 10434 10421 10406 10393 10381 10369 10358 10348 10336 10326 10316 10304 10293 10282 10271 10260 10245 10234 10227 10217 10210 10209 10195 10169 10151 10142 10130 10115 10102 10093 10091 10090 10082 10068 10058 10048 10037 10028 10020 10015 10009
10692 10692 10691 10690 10689 10688 10687 10685 10683 10682 10680 10679 10678 10676 10673 10671 10668 10665 10661 10657 10653 10648 10644 10638 10633 10628 10622 10615 10608 10601 10593 10585 10577 10569 10561 10553 10544 10535 10525 10516 10506 10496 10487 10476 10466 10456 10445 10433 10421 10406 10392 10380 10368 10357 10347 10335 10321 10309 10297 10287 10278 10267 10255 10240 10225 10215 10205 10194 10187 10182 10168 10148 10135 10126 10114 10099 10086 10080 10080 10073 10060 10050 10041 10031 10021 10012 10006 10001
10693 10693 10693 10692 10691 10689 10688 10686 10684 10683 10681 10680 10678 10676 10674 10671 10668 10665 10661 10657 10652 10648 10643 10638 10633 10627 10621 10614 10607 10600 10593 10585 10577 10568 10560 10551 10542 10533 10524 10514 10504 10494 10484 10474 10463 10453 10442 10431 10419 10406 10392 10380 10368 10354 10341 10329 10317 10307 10297 10286 10276 10262 10246 10234 10224 10211 10197 10184 10171 10163 10155 10141 10125 10115 10106 10095 10083 10074 10069 10064 10054 10044 10034 10026 10016 10007 9999 9994
10694 10694 10694 10693 10692 10690 10688 10686 10685 10684 10682 10681 10679 10676 10674 10671 10668 10664 10661 10657 10652 10648 10643 10637 10632 10626 10619 10613 10605 10598 10590 10583 10575 10567 10559 10550 10540 10531 10521 10511 10502 10493 10482 10472 10462 10451 10439 10428 10417 10406 10393 10381 10369 10355 10340 10326 10314 10304 10295 10282 10269 10256 10241 10228 10221 10212 10199 10186 10170 10154 10145 10136 10122 10111 10099 10084 10074 10068 10062 10057 10052 10043 10032 10024 10015 10006 9997 9991
10696 10696 10695 10694 10692 10691 10689 10687 10686 10684 10683 10681 10679 10677 10674 10671 10668 10664 10660 10656 10652 10647 10642 10637 10631 10624 10618 10611 10604 10597 10589 10581 10573 10565 10557 10548 10538 10528 10519 10509 10500 10491 10480 10470 10459 10448 10437 10427 10415 10403 10390 10376 10364 10353 10342 10330 10316 10303 10292 10279 10265 10254 10240 10222 10209 10201 10188 10177 10167 10154 10140 10129 10118 10107 10095 10078 10064 10059 10057 10052 10048 10043 10034 10023 10014 10005 9995 9987
10697 10697 10696 10694 10693 10691 10689 10688 10687 10685 10684 10682 10679 10677 10674 10671 10667 10663 10659 10655 10650 10646 10641 10636 10630 10624 10618 10611 10604 10596 10588 10580 10572 10564 10555 10546 10537 10526 10517 10508 10498 10488 10477 10466 10455 10445 10433 10422 10411 10399 10387 10373 10360 10347 10334 10324 10314 10300 10286 10273 10260 10249 10237 10219 10203 10193 10179 10166 10157 10148 10136 10125 10114 10104 10094 10078 10058 10048 10047 10044 10039 10035 10029 10019 10009 10002 9993 9984